This is the latest recevied weather packets stored in our database for station/object KC3SPD-13. If no packets are shown the sender has not sent any weather packets the latest 10 day(s).
| Time | Temp. | Humidity | Pressure | Rain* | Wind** | Luminosity | Snow |
|---|---|---|---|---|---|---|---|
| 1777810504 | 3.89° C | 70% | 967.8 hPa | 0 mm | - | 187 W/m² | - |
| 1777806904 | 2.78° C | 74% | 967.5 hPa | 0 mm | - | 44 W/m² | - |
| 1777793403 | 2.78° C | 75% | 966.5 hPa | 0 mm | - | 0 W/m² | - |
| 1777792804 | 3.33° C | 74% | 966.4 hPa | 0 mm | - | 0 W/m² | - |
| 1777791603 | 3.89° C | 71% | 966.3 hPa | 0 mm | - | 0 W/m² | - |
| 1777788304 | 3.89° C | 71% | 966 hPa | 0 mm | - | 0 W/m² | - |
| 1777787704 | 3.89° C | 74% | 966 hPa | 0 mm | - | 0 W/m² | - |
| 1777786504 | 4.44° C | 72% | 966.1 hPa | 0 mm | - | 0 W/m² | - |
| 1777782604 | 4.44° C | 72% | 966.3 hPa | 0 mm | - | 0 W/m² | - |
| 1777779004 | 4.44° C | 74% | 966.3 hPa | 0 mm | - | 0 W/m² | - |
| 1777777504 | 4.44° C | 73% | 966.5 hPa | 0 mm | - | 0 W/m² | - |
| 1777774504 | 4.44° C | 76% | 966.9 hPa | 0 mm | - | 0 W/m² | - |
| 1777771504 | 5.56° C | 68% | 966.5 hPa | 0 mm | - | 0 W/m² | - |
| 1777770904 | 6.11° C | 66% | 966.4 hPa | 0 mm | - | 0 W/m² | - |
| 1777769104 | 6.11° C | 64% | 966 hPa | 0 mm | - | 0 W/m² | - |
| 1777767304 | 6.67° C | 60% | 965.6 hPa | 0 mm | - | 10 W/m² | - |
| 1777764904 | 7.78° C | 58% | 965.4 hPa | 0 mm | - | 0 W/m² | - |
| 1777763104 | 8.33° C | 56% | 965.1 hPa | 0 mm | - | 0 W/m² | - |
| 1777760104 | 8.89° C | 54% | 964.6 hPa | 0 mm | - | 0 W/m² | - |
| 1777758604 | 9.44° C | 53% | 964.6 hPa | 0 mm | - | 0 W/m² | - |
| 1777758304 | 9.44° C | 53% | 964.5 hPa | 0 mm | - | 0 W/m² | - |
| 1777757404 | 10.56° C | 51% | 964.2 hPa | 0 mm | - | 0 W/m² | - |
| 1777752003 | 10° C | 52% | 964.2 hPa | 0 mm | - | 0 W/m² | - |
| 1777749903 | 10° C | 50% | 964.8 hPa | 0 mm | - | 0 W/m² | - |
| 1777748704 | 9.44° C | 51% | 964.9 hPa | 0 mm | - | 0 W/m² | - |
* Rain latest hour (hover to see other rain measurements)
** Current wind speed in m/s (hover to see current wind gust speed)